Location: ????????
(55.8351°N, 38.7040°E)
Time: 19:31:47
(UTC+00:00)

Cosmos 1538 Rocket - Pass Details

Date: 14 April 2024
Orbit: 751 x 789 km, 74.0° (Epoch: 18 May)

Event Time Altitude Azimuth Distance (km) Brightness Sun altitude
Exits shadow 00:27:02 18° 197° (SSW) 1,870 5.5 -14.6°
Maximum altitude 00:31:05 75° 115° (ESE) 819 4.2 -14.2°
Drops below altitude 10° 00:36:25 10° 31° (NNE) 2,346 7.8 -13.6°
Sets 00:38:49 0° 29° (NNE) 3,272 8.7 -13.4°
